DLH432 EDDF-KORD

Flight info

Callsign DLH432
Flight time N/A
Altitude 34000
Route OBOKA3W/25C OBOKA Z28 DIBIR DCT BUDIP DCT MIMVA L602 NALAX L46 ESHIN N110 ERKIT/N0461F350 DCT NAVSO DCT GOMUP/M081F360 DCT 58N015W 59N020W 59N030W 59N040W 59N050W DCT URTAK/N0478F380 DCT LAKES DCT 56N070W 51N080W DCT KP09O DCT OVETE ERNNY8
Aircraft A343/H-SDE2E3FGHIJ3J5M1P2RWXYZ/LB1D1

Departure

Time 2026-05-05 15:47
Airport Frankfurt Main Airport (EDDF)

Arrival

Time N/A
Airport Chicago O'Hare International Airport (KORD)
Time Latitude Longitude Altitude Speed Heading
2026-05-05 15:23 50.04644 8.55943 367 ft 0 kts 340°
2026-05-05 15:32 50.04631 8.55951 362 ft 4 kts 341°
2026-05-05 15:32 50.04605 8.55964 367 ft 4 kts 342°
2026-05-05 15:32 50.04584 8.55976 365 ft 4 kts 327°
2026-05-05 15:32 50.04568 8.56003 366 ft 4 kts 276°
2026-05-05 15:33 50.04571 8.56043 367 ft 4 kts 249°
2026-05-05 15:33 50.04581 8.56078 364 ft 1 kts 250°
2026-05-05 15:33 50.04581 8.56079 368 ft 0 kts 250°
2026-05-05 15:37 50.04574 8.56051 360 ft 5 kts 250°
2026-05-05 15:37 50.04557 8.55986 366 ft 8 kts 239°
2026-05-05 15:37 50.04510 8.55947 360 ft 9 kts 199°
2026-05-05 15:37 50.04435 8.55909 362 ft 14 kts 196°
2026-05-05 15:38 50.04336 8.55933 359 ft 15 kts 159°
2026-05-05 15:38 50.04250 8.55958 358 ft 7 kts 205°
2026-05-05 15:38 50.04200 8.55919 357 ft 11 kts 184°
2026-05-05 15:38 50.04106 8.55963 364 ft 16 kts 160°
2026-05-05 15:39 50.04073 8.56048 363 ft 9 kts 75°
2026-05-05 15:39 50.04102 8.56174 360 ft 16 kts 69°
2026-05-05 15:39 50.04150 8.56370 357 ft 20 kts 69°
2026-05-05 15:39 50.04197 8.56569 361 ft 19 kts 70°
2026-05-05 15:40 50.04239 8.56747 366 ft 16 kts 70°
2026-05-05 15:40 50.04276 8.56900 365 ft 15 kts 70°
2026-05-05 15:40 50.04311 8.57049 370 ft 14 kts 70°
2026-05-05 15:40 50.04343 8.57184 370 ft 14 kts 69°
2026-05-05 15:41 50.04377 8.57328 370 ft 14 kts 69°
2026-05-05 15:41 50.04411 8.57467 367 ft 12 kts 69°
2026-05-05 15:41 50.04434 8.57564 367 ft 8 kts 70°
2026-05-05 15:41 50.04450 8.57631 372 ft 7 kts 69°
2026-05-05 15:42 50.04467 8.57704 371 ft 8 kts 69°
2026-05-05 15:42 50.04488 8.57788 374 ft 9 kts 69°
2026-05-05 15:42 50.04511 8.57883 373 ft 10 kts 69°
2026-05-05 15:42 50.04535 8.57987 369 ft 11 kts 70°
2026-05-05 15:43 50.04557 8.58082 372 ft 9 kts 70°
2026-05-05 15:43 50.04578 8.58168 368 ft 8 kts 69°
2026-05-05 15:43 50.04594 8.58235 370 ft 5 kts 69°
2026-05-05 15:43 50.04606 8.58286 371 ft 7 kts 69°
2026-05-05 15:44 50.04629 8.58381 376 ft 12 kts 69°
2026-05-05 15:44 50.04661 8.58518 372 ft 13 kts 79°
2026-05-05 15:44 50.04648 8.58557 375 ft 2 kts 152°
2026-05-05 15:44 50.04609 8.58579 375 ft 9 kts 160°
2026-05-05 15:45 50.04542 8.58617 378 ft 9 kts 160°
2026-05-05 15:45 50.04496 8.58609 379 ft 5 kts 226°
2026-05-05 15:45 50.04472 8.58529 379 ft 6 kts 250°
2026-05-05 15:45 50.04470 8.58524 374 ft 0 kts 250°
2026-05-05 15:46 50.04470 8.58522 374 ft 2 kts 250°
2026-05-05 15:46 50.04404 8.58246 376 ft 59 kts 250°
2026-05-05 15:46 50.04187 8.57331 373 ft 118 kts 250°
2026-05-05 15:46 50.03843 8.55897 361 ft 166 kts 249°
2026-05-05 15:47 50.03413 8.54075 754 ft 183 kts 250°
2026-05-05 15:47 50.03124 8.52843 1261 ft 184 kts 250°
2026-05-05 15:47 50.02502 8.50287 2122 ft 199 kts 245°
2026-05-05 15:47 50.01553 8.48718 2915 ft 206 kts 210°
2026-05-05 15:48 50.00230 8.47991 3699 ft 204 kts 191°
2026-05-05 15:48 49.98796 8.47699 4275 ft 210 kts 189°
2026-05-05 15:48 49.97368 8.47396 4926 ft 209 kts 191°
2026-05-05 15:48 49.95921 8.47008 5573 ft 211 kts 194°
2026-05-05 15:49 49.94480 8.46368 6020 ft 222 kts 201°
2026-05-05 15:49 49.92964 8.45565 6420 ft 236 kts 200°
2026-05-05 15:49 49.91458 8.44454 6926 ft 244 kts 223°
2026-05-05 15:49 49.90542 8.42244 7503 ft 247 kts 245°
2026-05-05 15:50 49.89697 8.39918 8181 ft 249 kts 236°
2026-05-05 15:50 49.88814 8.37592 8774 ft 254 kts 250°
2026-05-05 15:50 49.88661 8.34852 9268 ft 262 kts 275°
2026-05-05 15:50 49.88819 8.31946 9571 ft 277 kts 272°
2026-05-05 15:51 49.88982 8.28915 10092 ft 286 kts 275°
2026-05-05 15:51 49.89500 8.25930 10534 ft 297 kts 293°
2026-05-05 15:51 49.90622 8.23123 10820 ft 313 kts 303°
2026-05-05 15:51 49.91955 8.20345 11076 ft 328 kts 305°
2026-05-05 15:52 49.93364 8.17460 11330 ft 343 kts 306°
2026-05-05 15:52 49.95033 8.14691 11591 ft 360 kts 316°
2026-05-05 15:52 49.96943 8.12121 12006 ft 367 kts 317°
2026-05-05 15:52 49.98913 8.09527 12464 ft 373 kts 317°
2026-05-05 15:53 50.00902 8.06906 12973 ft 377 kts 317°
2026-05-05 15:53 50.02905 8.04240 13485 ft 381 kts 317°
2026-05-05 15:53 50.04923 8.01539 14053 ft 383 kts 317°
2026-05-05 15:53 50.06949 7.98815 14611 ft 387 kts 317°
2026-05-05 15:54 50.08991 7.96070 15127 ft 389 kts 317°
2026-05-05 15:54 50.11027 7.93343 15654 ft 392 kts 318°
2026-05-05 15:54 50.13101 7.90572 16173 ft 394 kts 317°
2026-05-05 15:54 50.15186 7.87761 16678 ft 397 kts 317°
2026-05-05 15:55 50.17285 7.84922 17161 ft 401 kts 317°
2026-05-05 15:55 50.19391 7.82082 17571 ft 403 kts 317°
2026-05-05 15:55 50.21525 7.79192 18001 ft 407 kts 317°
2026-05-05 15:55 50.23672 7.76283 18518 ft 409 kts 317°
2026-05-05 15:56 50.25971 7.73629 18960 ft 415 kts 329°
2026-05-05 15:56 50.28572 7.71639 19478 ft 418 kts 335°
2026-05-05 15:56 50.31251 7.69824 19970 ft 420 kts 335°
2026-05-05 15:56 50.33951 7.67994 20379 ft 424 kts 335°
2026-05-05 15:57 50.36657 7.66153 20862 ft 428 kts 335°
2026-05-05 15:57 50.39416 7.64264 21369 ft 430 kts 335°
2026-05-05 15:57 50.42163 7.62376 21771 ft 433 kts 335°
2026-05-05 15:57 50.44886 7.60504 22142 ft 436 kts 335°
2026-05-05 15:58 50.47677 7.58582 22525 ft 440 kts 335°
2026-05-05 15:58 50.50479 7.56646 22966 ft 441 kts 335°
2026-05-05 15:58 50.53300 7.54702 23319 ft 443 kts 335°
2026-05-05 15:58 50.56085 7.52580 23631 ft 445 kts 329°
2026-05-05 15:59 50.58732 7.50019 23958 ft 447 kts 325°
2026-05-05 15:59 50.61344 7.47347 24284 ft 450 kts 325°
2026-05-05 15:59 50.63969 7.44642 24666 ft 451 kts 325°
2026-05-05 15:59 50.66609 7.41934 24974 ft 454 kts 325°
2026-05-05 16:00 50.69265 7.39201 25285 ft 456 kts 325°
2026-05-05 16:00 50.71925 7.36437 25659 ft 457 kts 323°
2026-05-05 16:00 50.74394 7.33282 25966 ft 456 kts 313°
2026-05-05 16:00 50.76441 7.29549 26260 ft 454 kts 305°
2026-05-05 16:01 50.78336 7.25551 26472 ft 456 kts 303°
2026-05-05 16:01 50.80172 7.21445 26742 ft 458 kts 302°
2026-05-05 16:01 50.81987 7.17282 27039 ft 460 kts 301°
2026-05-05 16:01 50.83798 7.13114 27334 ft 462 kts 302°
2026-05-05 16:02 50.85632 7.08920 27631 ft 463 kts 302°
2026-05-05 16:02 50.87462 7.04752 27863 ft 463 kts 302°
2026-05-05 16:02 50.89324 7.00535 28061 ft 467 kts 302°
2026-05-05 16:02 50.91192 6.96314 28323 ft 468 kts 302°
2026-05-05 16:03 50.92432 6.93515 28482 ft 469 kts 301°
2026-05-05 16:03 50.94311 6.89275 28701 ft 471 kts 302°
2026-05-05 16:03 50.96196 6.85001 28948 ft 472 kts 302°
2026-05-05 16:03 50.98074 6.80722 29195 ft 474 kts 302°
2026-05-05 16:04 50.99960 6.76422 29442 ft 475 kts 301°
2026-05-05 16:04 51.01842 6.72110 29628 ft 476 kts 301°
2026-05-05 16:04 51.03737 6.67773 29788 ft 479 kts 301°
2026-05-05 16:04 51.05634 6.63414 29973 ft 479 kts 301°
2026-05-05 16:05 51.07535 6.59046 30139 ft 481 kts 301°
2026-05-05 16:05 51.09449 6.54664 30342 ft 483 kts 301°
2026-05-05 16:05 51.11364 6.50276 30551 ft 483 kts 301°
2026-05-05 16:05 51.13279 6.45877 30808 ft 483 kts 301°
2026-05-05 16:06 51.15158 6.41558 31113 ft 480 kts 301°
2026-05-05 16:06 51.17059 6.37180 31400 ft 479 kts 301°
2026-05-05 16:06 51.18948 6.32819 31654 ft 478 kts 301°
2026-05-05 16:06 51.20835 6.28427 31834 ft 481 kts 300°
2026-05-05 16:07 51.22719 6.24020 31866 ft 479 kts 301°
2026-05-05 16:07 51.26471 6.15297 31856 ft 473 kts 301°
2026-05-05 16:08 51.30179 6.06578 31865 ft 474 kts 299°
2026-05-05 16:08 51.33761 5.97785 31871 ft 474 kts 299°
2026-05-05 16:09 51.37417 5.89091 31884 ft 477 kts 305°
2026-05-05 16:09 51.39691 5.85149 32035 ft 481 kts 313°
2026-05-05 16:09 51.42129 5.81494 32275 ft 479 kts 314°
2026-05-05 16:09 51.44607 5.77912 32499 ft 480 kts 315°
2026-05-05 16:10 51.47102 5.74376 32769 ft 478 kts 315°
2026-05-05 16:10 51.49586 5.70862 32946 ft 477 kts 314°
2026-05-05 16:10 51.52083 5.67329 33192 ft 476 kts 315°
2026-05-05 16:10 51.54550 5.63823 33451 ft 474 kts 314°
2026-05-05 16:11 51.57010 5.60313 33647 ft 473 kts 314°
2026-05-05 16:11 51.64318 5.49852 33882 ft 468 kts 314°
2026-05-05 16:12 51.66755 5.46359 33885 ft 467 kts 314°
2026-05-05 16:13 51.78785 5.28957 33887 ft 463 kts 314°
2026-05-05 16:13 51.83592 5.21959 33885 ft 465 kts 314°
2026-05-05 16:14 51.93212 5.07912 33893 ft 466 kts 314°
2026-05-05 16:15 52.02851 4.93823 33900 ft 466 kts 313°
2026-05-05 16:16 52.12387 4.79771 33907 ft 461 kts 313°
2026-05-05 16:17 52.19462 4.69232 33914 ft 461 kts 313°
2026-05-05 16:18 52.26559 4.58626 33914 ft 461 kts 313°
2026-05-05 16:19 52.33676 4.47994 33914 ft 462 kts 313°
2026-05-05 16:19 52.40766 4.37318 33920 ft 462 kts 313°
2026-05-05 16:20 52.50195 4.23067 33925 ft 461 kts 313°
2026-05-05 16:22 52.61657 4.05599 33954 ft 461 kts 313°
2026-05-05 16:23 52.71028 3.91233 33955 ft 461 kts 313°
2026-05-05 16:23 52.77844 3.80722 33957 ft 461 kts 313°
2026-05-05 16:24 52.82291 3.73836 33966 ft 460 kts 313°
2026-05-05 16:25 52.89298 3.62984 33975 ft 460 kts 313°
2026-05-05 16:25 52.96034 3.52448 33982 ft 458 kts 313°
2026-05-05 16:26 53.05264 3.37942 33973 ft 459 kts 313°
2026-05-05 16:27 53.09255 3.29770 33972 ft 449 kts 296°
2026-05-05 16:27 53.11444 3.20299 33967 ft 440 kts 281°
2026-05-05 16:28 53.12763 3.10886 33967 ft 443 kts 279°
2026-05-05 16:28 53.13937 3.01720 33961 ft 440 kts 279°
2026-05-05 16:29 53.15122 2.92414 33958 ft 442 kts 279°
2026-05-05 16:29 53.16255 2.83606 33962 ft 443 kts 279°
2026-05-05 16:30 53.17529 2.73778 33970 ft 444 kts 279°
2026-05-05 16:30 53.18835 2.63682 33972 ft 445 kts 279°
2026-05-05 16:31 53.20023 2.54310 33976 ft 444 kts 279°
2026-05-05 16:31 53.21283 2.44405 33968 ft 445 kts 279°
2026-05-05 16:32 53.22432 2.35310 33977 ft 445 kts 279°
2026-05-05 16:32 53.23610 2.25853 33969 ft 446 kts 279°
2026-05-05 16:33 53.24858 2.15798 33974 ft 444 kts 279°
2026-05-05 16:33 53.26000 2.06552 33972 ft 446 kts 279°
2026-05-05 16:34 53.27163 1.97009 33971 ft 445 kts 279°
2026-05-05 16:34 53.28391 1.86901 33970 ft 444 kts 279°
2026-05-05 16:35 53.29616 1.76770 33972 ft 444 kts 279°
2026-05-05 16:35 53.30812 1.66706 33968 ft 444 kts 279°
2026-05-05 16:36 53.32008 1.56583 33966 ft 444 kts 279°
2026-05-05 16:36 53.33244 1.46476 33966 ft 444 kts 281°
2026-05-05 16:37 53.34717 1.36452 33974 ft 444 kts 282°
2026-05-05 16:37 53.36248 1.26388 33980 ft 446 kts 282°
2026-05-05 16:38 53.37717 1.16324 33980 ft 444 kts 282°
2026-05-05 16:38 53.39142 1.06250 33981 ft 445 kts 282°
2026-05-05 16:39 53.40564 0.96160 33979 ft 445 kts 282°
2026-05-05 16:39 53.42000 0.86076 33978 ft 444 kts 281°
2026-05-05 16:40 53.43410 0.75982 33988 ft 445 kts 281°
2026-05-05 16:40 53.44814 0.65886 33998 ft 445 kts 282°
2026-05-05 16:41 53.46211 0.55847 34002 ft 445 kts 282°
2026-05-05 16:41 53.47589 0.45705 34000 ft 445 kts 281°
2026-05-05 16:42 53.48968 0.35565 33999 ft 445 kts 281°
2026-05-05 16:42 53.50337 0.25400 34005 ft 446 kts 281°
2026-05-05 16:43 53.51698 0.15252 34008 ft 446 kts 281°
2026-05-05 16:43 53.53059 0.05091 34011 ft 445 kts 282°
2026-05-05 16:44 53.54409 -0.05093 34017 ft 446 kts 281°
2026-05-05 16:44 53.55738 -0.15187 34019 ft 443 kts 281°
2026-05-05 16:45 53.57584 -0.25067 34021 ft 445 kts 294°
2026-05-05 16:45 53.61136 -0.33610 34013 ft 449 kts 314°
2026-05-05 16:46 53.66071 -0.40132 34013 ft 453 kts 323°
2026-05-05 16:46 53.71278 -0.46111 34014 ft 452 kts 324°
2026-05-05 16:47 53.76524 -0.52021 34016 ft 453 kts 324°
2026-05-05 16:47 53.81729 -0.58034 34016 ft 454 kts 323°
2026-05-05 16:48 53.86870 -0.64068 34013 ft 451 kts 323°
2026-05-05 16:48 53.92045 -0.70139 34020 ft 454 kts 323°
2026-05-05 16:49 53.97236 -0.76231 34024 ft 453 kts 323°
2026-05-05 16:49 54.02268 -0.82605 34097 ft 451 kts 314°
2026-05-05 16:50 54.04391 -0.86527 34235 ft 449 kts 306°
2026-05-05 16:50 54.06307 -0.90712 34355 ft 449 kts 305°
2026-05-05 16:50 54.10007 -0.99343 34589 ft 452 kts 303°
2026-05-05 16:51 54.13033 -1.06609 34745 ft 453 kts 303°
2026-05-05 16:51 54.15450 -1.12421 34949 ft 453 kts 303°
2026-05-05 16:51 54.17282 -1.16823 35034 ft 455 kts 303°
2026-05-05 16:52 54.20317 -1.24129 35046 ft 448 kts 303°
2026-05-05 16:52 54.23910 -1.32767 35048 ft 449 kts 303°
2026-05-05 16:53 54.27520 -1.41463 35046 ft 448 kts 303°
2026-05-05 16:53 54.31137 -1.50181 35045 ft 448 kts 303°
2026-05-05 16:54 54.34731 -1.58888 35047 ft 448 kts 303°
2026-05-05 16:54 54.38319 -1.67656 35051 ft 449 kts 303°
2026-05-05 16:55 54.41905 -1.76418 35052 ft 450 kts 303°
2026-05-05 16:55 54.45491 -1.85191 35060 ft 449 kts 303°
2026-05-05 16:56 54.49075 -1.93991 35070 ft 450 kts 303°
2026-05-05 16:56 54.52610 -2.02755 35058 ft 448 kts 303°
2026-05-05 16:57 54.56172 -2.11587 35055 ft 448 kts 303°
2026-05-05 16:57 54.59728 -2.20387 35055 ft 447 kts 303°
2026-05-05 16:58 54.63276 -2.29212 35055 ft 447 kts 302°
2026-05-05 16:58 54.66804 -2.38050 35055 ft 447 kts 302°
2026-05-05 16:59 54.70325 -2.46902 35055 ft 447 kts 302°
2026-05-05 16:59 54.73865 -2.55776 35056 ft 446 kts 302°
2026-05-05 17:00 54.77355 -2.64627 35044 ft 446 kts 302°
2026-05-05 17:00 54.80830 -2.73492 35044 ft 444 kts 302°
2026-05-05 17:01 54.84269 -2.82315 35044 ft 443 kts 301°
2026-05-05 17:01 54.87733 -2.91180 35048 ft 443 kts 302°
2026-05-05 17:02 54.91148 -2.99932 35044 ft 444 kts 302°
2026-05-05 17:02 54.94601 -3.08823 35055 ft 443 kts 301°
2026-05-05 17:03 54.98040 -3.17697 35056 ft 443 kts 302°
2026-05-05 17:03 55.01353 -3.26257 35055 ft 442 kts 301°
2026-05-05 17:04 55.04596 -3.34734 35056 ft 442 kts 301°
2026-05-05 17:04 55.08007 -3.43657 35055 ft 442 kts 301°
2026-05-05 17:05 55.11422 -3.52608 35051 ft 442 kts 301°
2026-05-05 17:05 55.14819 -3.61546 35058 ft 441 kts 301°
2026-05-05 17:06 55.18203 -3.70500 35069 ft 440 kts 301°
2026-05-05 17:06 55.21576 -3.79456 35064 ft 440 kts 301°
2026-05-05 17:07 55.24796 -3.88470 35066 ft 438 kts 297°
2026-05-05 17:07 55.27760 -3.97811 35055 ft 438 kts 296°
2026-05-05 17:08 55.30694 -4.07159 35054 ft 437 kts 297°
2026-05-05 17:08 55.33664 -4.16455 35058 ft 436 kts 297°
2026-05-05 17:09 55.36651 -4.25765 35053 ft 437 kts 297°
2026-05-05 17:09 55.39642 -4.35072 35053 ft 437 kts 297°
2026-05-05 17:10 55.42621 -4.44403 35045 ft 437 kts 297°
2026-05-05 17:10 55.45574 -4.53690 35046 ft 437 kts 297°
2026-05-05 17:11 55.48541 -4.63051 35042 ft 439 kts 297°
2026-05-05 17:11 55.51509 -4.72415 35045 ft 437 kts 296°
2026-05-05 17:12 55.54452 -4.81836 35055 ft 437 kts 296°
2026-05-05 17:12 55.57383 -4.91238 35055 ft 437 kts 297°
2026-05-05 17:13 55.60304 -5.00663 35062 ft 437 kts 296°
2026-05-05 17:13 55.63227 -5.10064 35063 ft 436 kts 297°
2026-05-05 17:14 55.66148 -5.19447 35059 ft 437 kts 296°
2026-05-05 17:14 55.69053 -5.28896 35066 ft 436 kts 296°
2026-05-05 17:15 55.71952 -5.38370 35070 ft 437 kts 296°
2026-05-05 17:15 55.74832 -5.47836 35069 ft 435 kts 296°
2026-05-05 17:16 55.77720 -5.57337 35081 ft 438 kts 296°
2026-05-05 17:16 55.80598 -5.66812 35068 ft 435 kts 296°
2026-05-05 17:17 55.83283 -5.75663 35094 ft 433 kts 296°
2026-05-05 17:17 55.86074 -5.84954 35086 ft 436 kts 296°
2026-05-05 17:18 55.88908 -5.94494 35097 ft 435 kts 296°
2026-05-05 17:18 55.91751 -6.04027 35100 ft 435 kts 296°
2026-05-05 17:19 55.94590 -6.13564 35101 ft 436 kts 296°
2026-05-05 17:19 55.97438 -6.23115 35100 ft 435 kts 296°
2026-05-05 17:20 56.00224 -6.32633 35102 ft 434 kts 295°
2026-05-05 17:20 56.03020 -6.42213 35104 ft 434 kts 295°
2026-05-05 17:21 56.05815 -6.51789 35110 ft 434 kts 295°
2026-05-05 17:22 56.09763 -6.65352 35114 ft 432 kts 295°
2026-05-05 17:22 56.12232 -6.73882 35108 ft 431 kts 295°
2026-05-05 17:23 56.14582 -6.82037 35111 ft 432 kts 295°
2026-05-05 17:23 56.16939 -6.90259 35115 ft 432 kts 295°
2026-05-05 17:24 56.19620 -6.99595 35129 ft 430 kts 295°
2026-05-05 17:24 56.22064 -7.08180 35127 ft 430 kts 295°
2026-05-05 17:25 56.24616 -7.17153 35125 ft 431 kts 295°
2026-05-05 17:25 56.26983 -7.25514 35130 ft 431 kts 295°
2026-05-05 17:26 56.29407 -7.34135 35130 ft 431 kts 295°
2026-05-05 17:26 56.31699 -7.42308 35130 ft 431 kts 295°
2026-05-05 17:27 56.34129 -7.50972 35132 ft 431 kts 295°
2026-05-05 17:27 56.36581 -7.59781 35122 ft 428 kts 295°
2026-05-05 17:28 56.39213 -7.69250 35128 ft 430 kts 295°
2026-05-05 17:28 56.41525 -7.77613 35126 ft 431 kts 295°
2026-05-05 17:29 56.43795 -7.85837 35128 ft 432 kts 295°
2026-05-05 17:29 56.46080 -7.94140 35127 ft 431 kts 295°
2026-05-05 17:30 56.48400 -8.02615 35125 ft 432 kts 295°
2026-05-05 17:30 56.50712 -8.11102 35130 ft 431 kts 295°
2026-05-05 17:31 56.53024 -8.19612 35140 ft 432 kts 295°
2026-05-05 17:31 56.55319 -8.28121 35141 ft 430 kts 294°
2026-05-05 17:32 56.57738 -8.37121 35144 ft 430 kts 294°
2026-05-05 17:32 56.60054 -8.45723 35147 ft 430 kts 294°
2026-05-05 17:33 56.62389 -8.54455 35146 ft 430 kts 294°
2026-05-05 17:33 56.64773 -8.63390 35138 ft 429 kts 294°
2026-05-05 17:34 56.67265 -8.72785 35149 ft 429 kts 294°
2026-05-05 17:34 56.69640 -8.81796 35148 ft 428 kts 294°
2026-05-05 17:35 56.71881 -8.90312 35149 ft 426 kts 294°
2026-05-05 17:35 56.74223 -8.99215 35138 ft 428 kts 294°
2026-05-05 17:36 56.76655 -9.08506 35150 ft 427 kts 293°
2026-05-05 17:36 56.78884 -9.17116 35150 ft 429 kts 293°
2026-05-05 17:37 56.81257 -9.26249 35147 ft 429 kts 293°
2026-05-05 17:37 56.83483 -9.34872 35145 ft 428 kts 293°
2026-05-05 17:38 56.85760 -9.43762 35149 ft 429 kts 293°
2026-05-05 17:38 56.87994 -9.52499 35152 ft 428 kts 293°
2026-05-05 17:39 56.89958 -9.60145 35145 ft 429 kts 293°
2026-05-05 17:39 56.92304 -9.69367 35148 ft 429 kts 292°
2026-05-05 17:40 56.95216 -9.80892 35147 ft 429 kts 292°
2026-05-05 17:40 56.97095 -9.88351 35137 ft 429 kts 293°
2026-05-05 17:41 56.99289 -9.97085 35155 ft 430 kts 292°
2026-05-05 17:41 57.01683 -10.06924 35263 ft 433 kts 290°
2026-05-05 17:41 57.02820 -10.12038 35385 ft 431 kts 290°
2026-05-05 17:42 57.03942 -10.17159 35471 ft 433 kts 290°
2026-05-05 17:42 57.05060 -10.22294 35629 ft 433 kts 290°
2026-05-05 17:42 57.06181 -10.27426 35801 ft 433 kts 290°
2026-05-05 17:42 57.07174 -10.31952 35929 ft 434 kts 290°
2026-05-05 17:43 57.08168 -10.36475 36021 ft 433 kts 290°
2026-05-05 17:43 57.10261 -10.45905 36147 ft 437 kts 290°
2026-05-05 17:44 57.12318 -10.55209 36146 ft 431 kts 290°
2026-05-05 17:44 57.14354 -10.64514 36148 ft 430 kts 290°
2026-05-05 17:45 57.16414 -10.73965 36148 ft 430 kts 290°
2026-05-05 17:45 57.18638 -10.84171 36144 ft 428 kts 290°
2026-05-05 17:46 57.20715 -10.93753 36146 ft 430 kts 290°
2026-05-05 17:46 57.22790 -11.03428 36155 ft 430 kts 290°
2026-05-05 17:47 57.24795 -11.12794 36155 ft 430 kts 290°
2026-05-05 17:47 57.26985 -11.23084 36157 ft 430 kts 289°
2026-05-05 17:48 57.29001 -11.32562 36156 ft 429 kts 290°
2026-05-05 17:48 57.31173 -11.42842 36153 ft 430 kts 289°
2026-05-05 17:49 57.33153 -11.52265 36157 ft 428 kts 290°
2026-05-05 17:49 57.35167 -11.61900 36160 ft 426 kts 290°
2026-05-05 17:50 57.37246 -11.71856 36158 ft 428 kts 289°
2026-05-05 17:50 57.39239 -11.81473 36157 ft 427 kts 289°
2026-05-05 17:51 57.41244 -11.91220 36156 ft 425 kts 289°
2026-05-05 17:51 57.43198 -12.00739 36156 ft 427 kts 289°
2026-05-05 17:52 57.45161 -12.10335 36155 ft 427 kts 289°
2026-05-05 17:52 57.47130 -12.19973 36157 ft 427 kts 289°
2026-05-05 17:53 57.49088 -12.29636 36155 ft 428 kts 289°
2026-05-05 17:53 57.51144 -12.39869 36156 ft 426 kts 289°
2026-05-05 17:54 57.53079 -12.49500 36156 ft 427 kts 289°
2026-05-05 17:54 57.54984 -12.59115 36159 ft 425 kts 288°
2026-05-05 17:55 57.56947 -12.69075 36157 ft 427 kts 289°
2026-05-05 17:55 57.58740 -12.78152 36160 ft 428 kts 289°
2026-05-05 17:56 57.60685 -12.88043 36158 ft 428 kts 289°
2026-05-05 17:56 57.62594 -12.97800 36155 ft 427 kts 289°
2026-05-05 17:57 57.64491 -13.07501 36156 ft 429 kts 289°
2026-05-05 17:57 57.66425 -13.17511 36154 ft 430 kts 288°
2026-05-05 17:58 57.68276 -13.27160 36151 ft 427 kts 288°
2026-05-05 17:58 57.70166 -13.37053 36155 ft 428 kts 288°
2026-05-05 17:59 57.72155 -13.47482 36156 ft 430 kts 288°
2026-05-05 17:59 57.74154 -13.58022 36158 ft 427 kts 289°
2026-05-05 18:00 57.76145 -13.68536 36155 ft 428 kts 288°
2026-05-05 18:00 57.78114 -13.79037 36155 ft 427 kts 288°
2026-05-05 18:01 57.80061 -13.89471 36156 ft 426 kts 288°
2026-05-05 18:01 57.82006 -13.99970 36154 ft 426 kts 288°
2026-05-05 18:02 57.83929 -14.10470 36165 ft 425 kts 288°
2026-05-05 18:02 57.85856 -14.20966 36165 ft 426 kts 288°
2026-05-05 18:03 57.87777 -14.31500 36164 ft 426 kts 287°
2026-05-05 18:03 57.89686 -14.42041 36166 ft 426 kts 288°
2026-05-05 18:04 57.91596 -14.52619 36173 ft 428 kts 288°
2026-05-05 18:04 57.93506 -14.63175 36175 ft 428 kts 288°
2026-05-05 18:05 57.95401 -14.73798 36173 ft 430 kts 288°
2026-05-05 18:05 57.97282 -14.84510 36175 ft 430 kts 288°
2026-05-05 18:06 57.99183 -14.95231 36172 ft 431 kts 288°
2026-05-05 18:06 58.01138 -15.05892 36173 ft 430 kts 291°
2026-05-05 18:07 58.03498 -15.16245 36166 ft 429 kts 294°
2026-05-05 18:07 58.05906 -15.26540 36165 ft 428 kts 294°
2026-05-05 18:08 58.08246 -15.36770 36166 ft 426 kts 293°
2026-05-05 18:08 58.10544 -15.47137 36164 ft 429 kts 292°
2026-05-05 18:09 58.12844 -15.57582 36165 ft 430 kts 293°
2026-05-05 18:09 58.15136 -15.68060 36164 ft 433 kts 292°
2026-05-05 18:10 58.17418 -15.78554 36166 ft 430 kts 292°
2026-05-05 18:10 58.19679 -15.88971 36167 ft 428 kts 292°
2026-05-05 18:11 58.21937 -15.99538 36178 ft 433 kts 292°
2026-05-05 18:11 58.24186 -16.10029 36175 ft 431 kts 292°
2026-05-05 18:12 58.26439 -16.20586 36173 ft 431 kts 292°
2026-05-05 18:12 58.28692 -16.31154 36173 ft 430 kts 292°
2026-05-05 18:13 58.30933 -16.41717 36174 ft 430 kts 292°
2026-05-05 18:13 58.33157 -16.52298 36179 ft 430 kts 292°
2026-05-05 18:14 58.35354 -16.62818 36173 ft 429 kts 292°
2026-05-05 18:14 58.37556 -16.73383 36178 ft 428 kts 292°
2026-05-05 18:15 58.39742 -16.83923 36172 ft 427 kts 292°
2026-05-05 18:15 58.41916 -16.94510 36175 ft 429 kts 292°
2026-05-05 18:16 58.44069 -17.05017 36176 ft 427 kts 292°
2026-05-05 18:16 58.46230 -17.15582 36175 ft 428 kts 292°
2026-05-05 18:17 58.48374 -17.26185 36176 ft 427 kts 292°
2026-05-05 18:17 58.50497 -17.36784 36173 ft 425 kts 292°
2026-05-05 18:18 58.52603 -17.47372 36175 ft 428 kts 291°
2026-05-05 18:18 58.54726 -17.58027 36176 ft 428 kts 292°
2026-05-05 18:19 58.56842 -17.68593 36175 ft 427 kts 292°
2026-05-05 18:19 58.58961 -17.79267 36172 ft 427 kts 291°
2026-05-05 18:20 58.61055 -17.89934 36179 ft 426 kts 292°
2026-05-05 18:20 58.63149 -18.00644 36173 ft 429 kts 291°
2026-05-05 18:21 58.65217 -18.11322 36181 ft 428 kts 292°
2026-05-05 18:21 58.67286 -18.22023 36190 ft 427 kts 291°
2026-05-05 18:22 58.69340 -18.32735 36197 ft 428 kts 291°
2026-05-05 18:22 58.71387 -18.43451 36188 ft 426 kts 291°
2026-05-05 18:23 58.73422 -18.54139 36187 ft 425 kts 292°
2026-05-05 18:23 58.75447 -18.64840 36186 ft 424 kts 291°
2026-05-05 18:24 58.77457 -18.75516 36195 ft 424 kts 291°
2026-05-05 18:24 58.79440 -18.86208 36190 ft 423 kts 291°
2026-05-05 18:25 58.81412 -18.96863 36186 ft 424 kts 291°
2026-05-05 18:25 58.83399 -19.07591 36193 ft 423 kts 291°
2026-05-05 18:26 58.85355 -19.18293 36188 ft 421 kts 291°
2026-05-05 18:26 58.87307 -19.28976 36195 ft 422 kts 291°
2026-05-05 18:27 58.88926 -19.37866 36190 ft 421 kts 291°
2026-05-05 18:27 58.90865 -19.48566 36196 ft 421 kts 291°
2026-05-05 18:28 58.93762 -19.64695 36195 ft 423 kts 291°
2026-05-05 18:28 58.95685 -19.75448 36195 ft 421 kts 291°
2026-05-05 18:29 58.97573 -19.86136 36191 ft 422 kts 291°
2026-05-05 18:29 58.99416 -19.96928 36188 ft 422 kts 287°
2026-05-05 18:30 59.00315 -20.08231 36195 ft 425 kts 279°
2026-05-05 18:30 59.00794 -20.19688 36190 ft 426 kts 278°
2026-05-05 18:31 59.01189 -20.31150 36193 ft 424 kts 277°
2026-05-05 18:31 59.01593 -20.42564 36182 ft 424 kts 278°
2026-05-05 18:32 59.01986 -20.53976 36183 ft 423 kts 277°
2026-05-05 18:32 59.02371 -20.65397 36181 ft 424 kts 277°
2026-05-05 18:33 59.02748 -20.76822 36182 ft 423 kts 278°
2026-05-05 18:33 59.03117 -20.88168 36182 ft 423 kts 277°
2026-05-05 18:34 59.03466 -20.99597 36188 ft 425 kts 277°
2026-05-05 18:34 59.03806 -21.11032 36181 ft 424 kts 277°
2026-05-05 18:35 59.04150 -21.22451 36195 ft 424 kts 277°
2026-05-05 18:35 59.04475 -21.33877 36195 ft 422 kts 277°
2026-05-05 18:36 59.04780 -21.45271 36192 ft 422 kts 277°
2026-05-05 18:36 59.05093 -21.56675 36196 ft 422 kts 277°
2026-05-05 18:37 59.05393 -21.68074 36194 ft 422 kts 277°
2026-05-05 18:37 59.05687 -21.79471 36194 ft 422 kts 277°
2026-05-05 18:38 59.05972 -21.90833 36186 ft 420 kts 277°
2026-05-05 18:38 59.06232 -22.02130 36202 ft 422 kts 277°
2026-05-05 18:39 59.06478 -22.13515 36200 ft 421 kts 277°
2026-05-05 18:39 59.06729 -22.24875 36202 ft 421 kts 277°
2026-05-05 18:40 59.06965 -22.36256 36198 ft 419 kts 277°
2026-05-05 18:40 59.07186 -22.47604 36202 ft 421 kts 277°
2026-05-05 18:41 59.07392 -22.58917 36202 ft 421 kts 277°
2026-05-05 18:41 59.07600 -22.70306 36248 ft 422 kts 277°
2026-05-05 18:42 59.07811 -22.81705 36275 ft 421 kts 277°
2026-05-05 18:42 59.08001 -22.93116 36279 ft 424 kts 276°
2026-05-05 18:43 59.08174 -23.04489 36275 ft 423 kts 276°
2026-05-05 18:43 59.08334 -23.15948 36275 ft 422 kts 276°
2026-05-05 18:44 59.08493 -23.27372 36276 ft 423 kts 276°
2026-05-05 18:44 59.08641 -23.38794 36275 ft 422 kts 276°
2026-05-05 18:45 59.08780 -23.50209 36275 ft 422 kts 276°
2026-05-05 18:45 59.08899 -23.61568 36291 ft 422 kts 276°
2026-05-05 18:46 59.09017 -23.73032 36308 ft 421 kts 276°
2026-05-05 18:46 59.09135 -23.84368 36318 ft 421 kts 276°
2026-05-05 18:47 59.09248 -23.95772 36315 ft 422 kts 276°
2026-05-05 18:47 59.09324 -24.07203 36317 ft 425 kts 276°
2026-05-05 18:48 59.09388 -24.18689 36316 ft 423 kts 276°
2026-05-05 18:48 59.09449 -24.30131 36305 ft 425 kts 275°
2026-05-05 18:49 59.09503 -24.41544 36308 ft 423 kts 276°
2026-05-05 18:49 59.09555 -24.52975 36314 ft 423 kts 275°
2026-05-05 18:50 59.09597 -24.64405 36316 ft 423 kts 275°
2026-05-05 18:50 59.09606 -24.75861 36325 ft 424 kts 275°
2026-05-05 18:51 59.09621 -24.87335 36321 ft 424 kts 275°
2026-05-05 18:51 59.09625 -24.98804 36327 ft 423 kts 275°
2026-05-05 18:52 59.09625 -25.10285 36323 ft 425 kts 276°
2026-05-05 18:52 59.09616 -25.21762 36321 ft 426 kts 275°
2026-05-05 18:53 59.09598 -25.33285 36315 ft 425 kts 275°
2026-05-05 18:53 59.09567 -25.44779 36327 ft 424 kts 275°
2026-05-05 18:54 59.09526 -25.56275 36319 ft 427 kts 275°
2026-05-05 18:54 59.09474 -25.67810 36321 ft 425 kts 275°
2026-05-05 18:55 59.09404 -25.79222 36324 ft 425 kts 275°
2026-05-05 18:55 59.09325 -25.90729 36327 ft 425 kts 274°
2026-05-05 18:56 59.09237 -26.02257 36341 ft 429 kts 274°
2026-05-05 18:56 59.09137 -26.13835 36327 ft 426 kts 274°
2026-05-05 18:57 59.09033 -26.25321 36334 ft 424 kts 274°
2026-05-05 18:57 59.08921 -26.36813 36330 ft 424 kts 274°
2026-05-05 18:58 59.08795 -26.48269 36324 ft 427 kts 274°
2026-05-05 18:58 59.08655 -26.59815 36332 ft 426 kts 274°
2026-05-05 18:59 59.08506 -26.71288 36325 ft 424 kts 274°
2026-05-05 18:59 59.08353 -26.82791 36338 ft 425 kts 274°
2026-05-05 19:00 59.08197 -26.94320 36339 ft 427 kts 274°
2026-05-05 19:00 59.08017 -27.05771 36335 ft 427 kts 274°
2026-05-05 19:01 59.07807 -27.17293 36339 ft 426 kts 274°
2026-05-05 19:01 59.07608 -27.28843 36341 ft 427 kts 273°
2026-05-05 19:02 59.07402 -27.40375 36338 ft 427 kts 273°
2026-05-05 19:02 59.07193 -27.51903 36344 ft 426 kts 273°
2026-05-05 19:03 59.06982 -27.63393 36341 ft 425 kts 273°
2026-05-05 19:03 59.06747 -27.74897 36344 ft 424 kts 273°
2026-05-05 19:04 59.06487 -27.86359 36348 ft 425 kts 273°
2026-05-05 19:04 59.06225 -27.97846 36349 ft 426 kts 273°
2026-05-05 19:05 59.05960 -28.09340 36350 ft 426 kts 272°
2026-05-05 19:05 59.05669 -28.20758 36344 ft 426 kts 272°
2026-05-05 19:06 59.05385 -28.32255 36343 ft 426 kts 272°
2026-05-05 19:06 59.05093 -28.43734 36337 ft 425 kts 272°
2026-05-05 19:07 59.04791 -28.55250 36339 ft 427 kts 272°
2026-05-05 19:07 59.04477 -28.66763 36339 ft 427 kts 272°
2026-05-05 19:08 59.04135 -28.78285 36365 ft 427 kts 272°
2026-05-05 19:08 59.03792 -28.89731 36373 ft 426 kts 272°
2026-05-05 19:09 59.03441 -29.01272 36376 ft 427 kts 272°
2026-05-05 19:09 59.03083 -29.12818 36376 ft 429 kts 272°
2026-05-05 19:10 59.02713 -29.24353 36374 ft 425 kts 271°
2026-05-05 19:10 59.02325 -29.35818 36375 ft 426 kts 271°
2026-05-05 19:11 59.01925 -29.47304 36377 ft 427 kts 271°
2026-05-05 19:11 59.01529 -29.58839 36376 ft 428 kts 271°
2026-05-05 19:12 59.01115 -29.70261 36380 ft 427 kts 271°
2026-05-05 19:12 59.00700 -29.81771 36379 ft 429 kts 271°
2026-05-05 19:13 59.00272 -29.93342 36385 ft 428 kts 271°
2026-05-05 19:13 59.00219 -30.04822 36388 ft 422 kts 277°
2026-05-05 19:14 59.00585 -30.16226 36384 ft 424 kts 278°
2026-05-05 19:14 59.01021 -30.27646 36385 ft 424 kts 278°
2026-05-05 19:15 59.01453 -30.39060 36387 ft 424 kts 278°
2026-05-05 19:15 59.01856 -30.50420 36393 ft 425 kts 278°
2026-05-05 19:16 59.02255 -30.61879 36392 ft 427 kts 278°
2026-05-05 19:16 59.02640 -30.73351 36398 ft 424 kts 277°
2026-05-05 19:17 59.02949 -30.82850 36393 ft 425 kts 277°
2026-05-05 19:17 59.03307 -30.94335 36393 ft 427 kts 277°
2026-05-05 19:18 59.03660 -31.05857 36391 ft 428 kts 277°
2026-05-05 19:18 59.04011 -31.17392 36387 ft 428 kts 277°
2026-05-05 19:19 59.04342 -31.28934 36367 ft 427 kts 277°
2026-05-05 19:19 59.04670 -31.40486 36369 ft 427 kts 277°
2026-05-05 19:20 59.04978 -31.51964 36374 ft 428 kts 276°
2026-05-05 19:20 59.05283 -31.63556 36375 ft 429 kts 276°
2026-05-05 19:21 59.05583 -31.75131 36376 ft 429 kts 276°
2026-05-05 19:21 59.05817 -31.86571 36380 ft 423 kts 276°
2026-05-05 19:22 59.06111 -31.98008 36379 ft 429 kts 276°
2026-05-05 19:22 59.06388 -32.09606 36376 ft 430 kts 276°
2026-05-05 19:23 59.06658 -32.21255 36372 ft 431 kts 276°
2026-05-05 19:23 59.06915 -32.32922 36377 ft 432 kts 276°
2026-05-05 19:24 59.07150 -32.44623 36380 ft 435 kts 276°
2026-05-05 19:24 59.07371 -32.56283 36387 ft 433 kts 275°
2026-05-05 19:25 59.07588 -32.67997 36385 ft 433 kts 275°
2026-05-05 19:25 59.07781 -32.79769 36384 ft 435 kts 275°
2026-05-05 19:26 59.07958 -32.91519 36383 ft 434 kts 275°
2026-05-05 19:26 59.08162 -33.03255 36383 ft 433 kts 275°
2026-05-05 19:27 59.08342 -33.14980 36385 ft 433 kts 274°
2026-05-05 19:27 59.08496 -33.26773 36448 ft 437 kts 274°
2026-05-05 19:28 59.08656 -33.38464 36450 ft 436 kts 274°
2026-05-05 19:28 59.08797 -33.50287 36449 ft 437 kts 274°
2026-05-05 19:29 59.08919 -33.62099 36447 ft 436 kts 274°
2026-05-05 19:29 59.09034 -33.73932 36449 ft 438 kts 274°
2026-05-05 19:30 59.09148 -33.85708 36446 ft 439 kts 274°
2026-05-05 19:30 59.09264 -33.97585 36448 ft 438 kts 274°
2026-05-05 19:31 59.09339 -34.09446 36447 ft 439 kts 273°
2026-05-05 19:31 59.09406 -34.21375 36450 ft 443 kts 273°
2026-05-05 19:32 59.09454 -34.33378 36448 ft 443 kts 273°
2026-05-05 19:32 59.09511 -34.45337 36450 ft 442 kts 273°
2026-05-05 19:33 59.09571 -34.57347 36449 ft 444 kts 272°
2026-05-05 19:33 59.09609 -34.69382 36448 ft 445 kts 272°
2026-05-05 19:34 59.09642 -34.81307 36449 ft 444 kts 272°
2026-05-05 19:35 59.09649 -34.99369 36462 ft 443 kts 272°
2026-05-05 19:35 59.09647 -35.11389 36459 ft 446 kts 272°
2026-05-05 19:36 59.09633 -35.23393 36453 ft 445 kts 272°
2026-05-05 19:36 59.09605 -35.35438 36459 ft 446 kts 272°
2026-05-05 19:37 59.09568 -35.47524 36459 ft 447 kts 271°
2026-05-05 19:37 59.09518 -35.59644 36459 ft 448 kts 271°
2026-05-05 19:38 59.09445 -35.71758 36460 ft 447 kts 271°
2026-05-05 19:38 59.09377 -35.83838 36460 ft 448 kts 271°
2026-05-05 19:39 59.09285 -35.95881 36459 ft 448 kts 271°
2026-05-05 19:39 59.09193 -36.08040 36456 ft 450 kts 271°
2026-05-05 19:40 59.09093 -36.20238 36458 ft 452 kts 270°
2026-05-05 19:40 59.08965 -36.32470 36460 ft 453 kts 270°
2026-05-05 19:41 59.08827 -36.44725 36460 ft 453 kts 270°
2026-05-05 19:41 59.08683 -36.56993 36456 ft 453 kts 270°
2026-05-05 19:42 59.08531 -36.69198 36457 ft 454 kts 270°
2026-05-05 19:42 59.08388 -36.81503 36457 ft 455 kts 270°
2026-05-05 19:43 59.08211 -36.93802 36458 ft 454 kts 269°
2026-05-05 19:43 59.08006 -37.06081 36460 ft 455 kts 269°
2026-05-05 19:44 59.07800 -37.18384 36439 ft 454 kts 269°
2026-05-05 19:44 59.07585 -37.30702 36321 ft 455 kts 269°
2026-05-05 19:45 59.07369 -37.42940 36249 ft 457 kts 269°
2026-05-05 19:45 59.07130 -37.55312 36249 ft 458 kts 269°
2026-05-05 19:46 59.06880 -37.67673 36249 ft 458 kts 268°
2026-05-05 19:46 59.06620 -37.80066 36246 ft 458 kts 268°
2026-05-05 19:47 59.06345 -37.92372 36238 ft 455 kts 268°
2026-05-05 19:47 59.06060 -38.04687 36240 ft 459 kts 268°
2026-05-05 19:48 59.05786 -38.17088 36240 ft 460 kts 268°
2026-05-05 19:48 59.05478 -38.29572 36233 ft 464 kts 268°
2026-05-05 19:49 59.05145 -38.42065 36228 ft 462 kts 268°
2026-05-05 19:49 59.04809 -38.54582 36230 ft 463 kts 267°
2026-05-05 19:50 59.04454 -38.67000 36229 ft 463 kts 267°
2026-05-05 19:50 59.04119 -38.79514 36220 ft 464 kts 267°
2026-05-05 19:51 59.03751 -38.92043 36224 ft 467 kts 266°
2026-05-05 19:51 59.03374 -39.04655 36220 ft 468 kts 266°
2026-05-05 19:52 59.02953 -39.17228 36220 ft 466 kts 266°
2026-05-05 19:52 59.02521 -39.29804 36211 ft 468 kts 266°
2026-05-05 19:53 59.02096 -39.42430 36211 ft 468 kts 266°
2026-05-05 19:53 59.01673 -39.54948 36211 ft 468 kts 266°
2026-05-05 19:54 59.01221 -39.67573 36211 ft 468 kts 265°
2026-05-05 19:54 59.00759 -39.80173 36202 ft 467 kts 265°
2026-05-05 19:55 59.00272 -39.92796 36200 ft 469 kts 265°
2026-05-05 19:55 59.00220 -40.05463 36200 ft 470 kts 272°
2026-05-05 19:56 59.00656 -40.18144 36193 ft 472 kts 274°
2026-05-05 19:56 59.01136 -40.30799 36191 ft 473 kts 274°
2026-05-05 19:57 59.01605 -40.43540 36189 ft 473 kts 273°
2026-05-05 19:57 59.02054 -40.56305 36188 ft 474 kts 273°
2026-05-05 19:58 59.02493 -40.69059 36183 ft 474 kts 273°
2026-05-05 19:58 59.02905 -40.81869 36184 ft 475 kts 272°
2026-05-05 19:59 59.03314 -40.94680 36160 ft 477 kts 272°
2026-05-05 19:59 59.03714 -41.07454 36156 ft 477 kts 272°
2026-05-05 20:00 59.04103 -41.20341 36153 ft 478 kts 272°
2026-05-05 20:00 59.04474 -41.33223 36144 ft 478 kts 272°
2026-05-05 20:01 59.04824 -41.46140 36129 ft 478 kts 272°
2026-05-05 20:01 59.05176 -41.59075 36146 ft 479 kts 272°
2026-05-05 20:02 59.05504 -41.71935 36146 ft 478 kts 271°
2026-05-05 20:02 59.05823 -41.84871 36146 ft 479 kts 271°
2026-05-05 20:03 59.06118 -41.97839 36137 ft 481 kts 271°
2026-05-05 20:03 59.06413 -42.10833 36144 ft 482 kts 271°
2026-05-05 20:04 59.06698 -42.23916 36133 ft 486 kts 271°
2026-05-05 20:04 59.06973 -42.37083 36130 ft 486 kts 270°
2026-05-05 20:05 59.07231 -42.50200 36142 ft 486 kts 271°
2026-05-05 20:05 59.07488 -42.63274 36135 ft 488 kts 271°
2026-05-05 20:06 59.07729 -42.76435 36131 ft 486 kts 270°
2026-05-05 20:06 59.07952 -42.89655 36155 ft 489 kts 270°
2026-05-05 20:07 59.08119 -43.00659 36157 ft 489 kts 270°
2026-05-05 20:07 59.08315 -43.13891 36157 ft 489 kts 270°
2026-05-05 20:08 59.08503 -43.27125 36149 ft 489 kts 270°
2026-05-05 20:08 59.08673 -43.40392 36144 ft 491 kts 270°
2026-05-05 20:09 59.08827 -43.53680 36150 ft 492 kts 269°
2026-05-05 20:09 59.08959 -43.66940 36148 ft 493 kts 269°
2026-05-05 20:10 59.09089 -43.80268 36145 ft 494 kts 269°
2026-05-05 20:10 59.09209 -43.93636 36146 ft 494 kts 269°
2026-05-05 20:11 59.09308 -44.06994 36145 ft 494 kts 269°
2026-05-05 20:11 59.09401 -44.20420 36148 ft 497 kts 269°
2026-05-05 20:12 59.09476 -44.33869 36141 ft 496 kts 268°
2026-05-05 20:12 59.09534 -44.47313 36148 ft 498 kts 268°
2026-05-05 20:13 59.09595 -44.60771 36147 ft 498 kts 268°
2026-05-05 20:13 59.09613 -44.74137 36139 ft 499 kts 268°
2026-05-05 20:14 59.09625 -44.87662 36140 ft 499 kts 268°
2026-05-05 20:14 59.09643 -45.01139 36146 ft 497 kts 268°
2026-05-05 20:15 59.09647 -45.14568 36134 ft 500 kts 268°
2026-05-05 20:15 59.09625 -45.28165 36128 ft 499 kts 268°
2026-05-05 20:16 59.09585 -45.41703 36141 ft 500 kts 267°
2026-05-05 20:16 59.09533 -45.55144 36107 ft 500 kts 267°
2026-05-05 20:17 59.09466 -45.68672 36101 ft 501 kts 266°
2026-05-05 20:17 59.09395 -45.82291 36102 ft 502 kts 266°
2026-05-05 20:18 59.09310 -45.95895 36097 ft 502 kts 266°
2026-05-05 20:18 59.09190 -46.09451 36101 ft 501 kts 266°
2026-05-05 20:19 59.09055 -46.22999 36102 ft 502 kts 266°
2026-05-05 20:19 59.08923 -46.36529 36102 ft 503 kts 266°
2026-05-05 20:20 59.08774 -46.50142 36100 ft 504 kts 266°
2026-05-05 20:20 59.08611 -46.63748 36101 ft 503 kts 266°
2026-05-05 20:21 59.08429 -46.77350 36101 ft 504 kts 266°
2026-05-05 20:21 59.08240 -46.91055 36099 ft 507 kts 266°
2026-05-05 20:22 59.08043 -47.04742 36102 ft 506 kts 265°
2026-05-05 20:22 59.07820 -47.18322 36102 ft 506 kts 265°
2026-05-05 20:23 59.07583 -47.31978 36100 ft 506 kts 265°
2026-05-05 20:23 59.07327 -47.45669 36091 ft 507 kts 265°
2026-05-05 20:24 59.07057 -47.59320 36090 ft 505 kts 265°
2026-05-05 20:24 59.06791 -47.72969 36093 ft 505 kts 265°
2026-05-05 20:25 59.06491 -47.86663 36091 ft 509 kts 264°
2026-05-05 20:25 59.06170 -48.00368 36092 ft 506 kts 264°
2026-05-05 20:26 59.05845 -48.14070 36092 ft 509 kts 264°
2026-05-05 20:26 59.05506 -48.27810 36092 ft 508 kts 264°
2026-05-05 20:27 59.05165 -48.41446 36083 ft 509 kts 264°
2026-05-05 20:27 59.04791 -48.55169 36082 ft 507 kts 264°
2026-05-05 20:28 59.04404 -48.68876 36082 ft 509 kts 264°
2026-05-05 20:28 59.04003 -48.82622 36083 ft 509 kts 264°
2026-05-05 20:29 59.03595 -48.96349 36083 ft 507 kts 264°
2026-05-05 20:29 59.03171 -49.10059 36081 ft 510 kts 263°
2026-05-05 20:30 59.02722 -49.23739 36074 ft 510 kts 263°
2026-05-05 20:30 59.02269 -49.37479 36071 ft 512 kts 263°
2026-05-05 20:31 59.01799 -49.51253 36054 ft 511 kts 263°
2026-05-05 20:31 59.01308 -49.65050 36056 ft 512 kts 263°
2026-05-05 20:32 59.00794 -49.78844 36051 ft 511 kts 263°
2026-05-05 20:32 59.00286 -49.92588 36046 ft 511 kts 263°
2026-05-05 20:33 58.99787 -50.06358 36043 ft 512 kts 263°
2026-05-05 20:33 58.99297 -50.20129 36036 ft 512 kts 263°
2026-05-05 20:34 58.98787 -50.33934 36036 ft 513 kts 263°
2026-05-05 20:34 58.98246 -50.47707 36036 ft 512 kts 263°
2026-05-05 20:35 58.97718 -50.61397 36035 ft 511 kts 263°
2026-05-05 20:35 58.97169 -50.75163 36029 ft 513 kts 262°
2026-05-05 20:36 58.96596 -50.88962 36027 ft 515 kts 262°
2026-05-05 20:36 58.96007 -51.02781 36027 ft 514 kts 262°
2026-05-05 20:37 58.95403 -51.16548 36019 ft 512 kts 262°
2026-05-05 20:37 58.94784 -51.30296 36019 ft 513 kts 262°
2026-05-05 20:38 58.94169 -51.44077 36017 ft 513 kts 262°
2026-05-05 20:38 58.93530 -51.57858 36007 ft 514 kts 262°
2026-05-05 20:39 58.92875 -51.71539 36011 ft 515 kts 262°
2026-05-05 20:39 58.92195 -51.85350 35940 ft 514 kts 261°
2026-05-05 20:40 58.91501 -51.99092 35934 ft 514 kts 261°
2026-05-05 20:40 58.90783 -52.12854 35936 ft 512 kts 261°
2026-05-05 20:41 58.90069 -52.26601 35933 ft 514 kts 261°
2026-05-05 20:41 58.89342 -52.40379 35935 ft 517 kts 261°
2026-05-05 20:42 58.88586 -52.54158 35924 ft 514 kts 261°
2026-05-05 20:42 58.87825 -52.67914 35925 ft 515 kts 261°
2026-05-05 20:43 58.87055 -52.81568 35916 ft 515 kts 261°
2026-05-05 20:43 58.86269 -52.95409 35914 ft 514 kts 260°
2026-05-05 20:44 58.85460 -53.09033 35916 ft 514 kts 260°
2026-05-05 20:44 58.84645 -53.22762 35916 ft 515 kts 260°
2026-05-05 20:45 58.83391 -53.43319 35916 ft 514 kts 260°
2026-05-05 20:45 58.82533 -53.57018 35906 ft 514 kts 260°
2026-05-05 20:46 58.81670 -53.70678 35906 ft 513 kts 259°
2026-05-05 20:46 58.80788 -53.84344 35908 ft 515 kts 259°
2026-05-05 20:47 58.79878 -53.98002 35905 ft 513 kts 259°
2026-05-05 20:47 58.78978 -54.11525 35907 ft 512 kts 259°
2026-05-05 20:48 58.78049 -54.25127 35896 ft 511 kts 259°
2026-05-05 20:48 58.77112 -54.38738 35899 ft 513 kts 259°
2026-05-05 20:49 58.76153 -54.52357 35898 ft 513 kts 259°
2026-05-05 20:49 58.75178 -54.65966 35890 ft 513 kts 259°
2026-05-05 20:50 58.74365 -54.77271 35889 ft 513 kts 258°
2026-05-05 20:50 58.73202 -54.93162 35880 ft 512 kts 258°
2026-05-05 20:51 58.72187 -55.06739 35861 ft 513 kts 258°
2026-05-05 20:51 58.71165 -55.20258 35880 ft 512 kts 258°
2026-05-05 20:52 58.70132 -55.33805 35880 ft 511 kts 258°
2026-05-05 20:52 58.69077 -55.47337 35796 ft 511 kts 258°
2026-05-05 20:53 58.68022 -55.60842 35790 ft 511 kts 258°
2026-05-05 20:53 58.66925 -55.74364 35784 ft 511 kts 258°
2026-05-05 20:54 58.65835 -55.87757 35785 ft 509 kts 258°
2026-05-05 20:54 58.64729 -56.01202 35740 ft 509 kts 258°
2026-05-05 20:55 58.63804 -56.12356 35737 ft 509 kts 257°
2026-05-05 20:55 58.62665 -56.25834 35729 ft 510 kts 257°
2026-05-05 20:56 58.61525 -56.39235 35731 ft 508 kts 257°
2026-05-05 20:56 58.60373 -56.52634 35730 ft 511 kts 257°
2026-05-05 20:57 58.59202 -56.66063 35718 ft 509 kts 257°
2026-05-05 20:57 58.58029 -56.79438 35716 ft 508 kts 257°
2026-05-05 20:58 58.56825 -56.92803 35719 ft 509 kts 256°
2026-05-05 20:58 58.55612 -57.06099 35711 ft 510 kts 256°
2026-05-05 20:59 58.54398 -57.19466 35652 ft 510 kts 256°
2026-05-05 20:59 58.53143 -57.32842 35589 ft 510 kts 256°
2026-05-05 21:00 58.51883 -57.46209 35588 ft 510 kts 256°
2026-05-05 21:00 58.50612 -57.59552 35590 ft 510 kts 256°
2026-05-05 21:01 58.49335 -57.72867 35589 ft 508 kts 256°
2026-05-05 21:01 58.48039 -57.86123 35591 ft 506 kts 256°
2026-05-05 21:02 58.46734 -57.99351 35792 ft 506 kts 256°
2026-05-05 21:02 58.46123 -58.05878 36028 ft 506 kts 258°
2026-05-05 21:02 58.45638 -58.12513 36266 ft 505 kts 260°
2026-05-05 21:03 58.45220 -58.19175 36446 ft 503 kts 261°
2026-05-05 21:03 58.44840 -58.25482 36533 ft 504 kts 261°
2026-05-05 21:03 58.44453 -58.31695 36666 ft 505 kts 260°
2026-05-05 21:03 58.44017 -58.38340 36914 ft 502 kts 260°
2026-05-05 21:04 58.43572 -58.44936 37128 ft 500 kts 259°
2026-05-05 21:04 58.43111 -58.51495 37376 ft 498 kts 259°
2026-05-05 21:04 58.42640 -58.58033 37547 ft 498 kts 259°
2026-05-05 21:04 58.42161 -58.64592 37573 ft 499 kts 259°
2026-05-05 21:05 58.41210 -58.77703 37574 ft 498 kts 259°
2026-05-05 21:05 58.40244 -58.90779 37572 ft 497 kts 259°
2026-05-05 21:06 58.39271 -59.03695 37525 ft 496 kts 259°
2026-05-05 21:06 58.38269 -59.16736 37515 ft 497 kts 259°
2026-05-05 21:07 58.37258 -59.29715 37501 ft 491 kts 259°
2026-05-05 21:07 58.36259 -59.42498 37501 ft 485 kts 259°
2026-05-05 21:08 58.35265 -59.55170 37508 ft 484 kts 259°
2026-05-05 21:08 58.34256 -59.67817 37511 ft 482 kts 259°
2026-05-05 21:09 58.33229 -59.80419 37499 ft 481 kts 259°
2026-05-05 21:09 58.32180 -59.93005 37496 ft 481 kts 259°
2026-05-05 21:10 58.31133 -60.05501 37496 ft 482 kts 259°
2026-05-05 21:10 58.30082 -60.18120 37497 ft 483 kts 259°
2026-05-05 21:11 58.29009 -60.30697 37496 ft 481 kts 259°
2026-05-05 21:11 58.27911 -60.43246 37494 ft 482 kts 258°
2026-05-05 21:12 58.26810 -60.55818 37493 ft 481 kts 258°
2026-05-05 21:12 58.25699 -60.68361 37488 ft 482 kts 258°
2026-05-05 21:13 58.24579 -60.80902 37490 ft 482 kts 258°
2026-05-05 21:13 58.23445 -60.93448 37486 ft 482 kts 258°
2026-05-05 21:14 58.22290 -61.05982 37484 ft 482 kts 258°
2026-05-05 21:14 58.21128 -61.18430 37487 ft 481 kts 258°
2026-05-05 21:15 58.19955 -61.30917 37486 ft 481 kts 258°
2026-05-05 21:15 58.18771 -61.43430 37487 ft 480 kts 258°
2026-05-05 21:16 58.17579 -61.55867 37486 ft 479 kts 258°
2026-05-05 21:16 58.16366 -61.68258 37487 ft 478 kts 257°
2026-05-05 21:17 58.15150 -61.80641 37480 ft 477 kts 257°
2026-05-05 21:17 58.13935 -61.92963 37476 ft 476 kts 258°
2026-05-05 21:18 58.12714 -62.05304 37482 ft 476 kts 257°
2026-05-05 21:18 58.11480 -62.17548 37480 ft 477 kts 257°
2026-05-05 21:19 58.10212 -62.29863 37475 ft 478 kts 257°
2026-05-05 21:19 58.08938 -62.42200 37471 ft 478 kts 257°
2026-05-05 21:20 58.07664 -62.54510 37470 ft 477 kts 257°
2026-05-05 21:20 58.06359 -62.66807 37467 ft 479 kts 257°
2026-05-05 21:21 58.05040 -62.79151 37486 ft 480 kts 256°
2026-05-05 21:21 58.03715 -62.91523 37489 ft 481 kts 256°
2026-05-05 21:22 58.02379 -63.03901 37487 ft 481 kts 256°
2026-05-05 21:22 58.01034 -63.16220 37487 ft 483 kts 256°
2026-05-05 21:23 57.99295 -63.28411 37486 ft 479 kts 244°
2026-05-05 21:23 57.96559 -63.39845 37487 ft 476 kts 242°
2026-05-05 21:24 57.93654 -63.51039 37487 ft 475 kts 242°
2026-05-05 21:24 57.90725 -63.62236 37481 ft 477 kts 242°
2026-05-05 21:25 57.87797 -63.73448 37480 ft 478 kts 242°
2026-05-05 21:25 57.84884 -63.84596 37473 ft 478 kts 242°
2026-05-05 21:26 57.81949 -63.95787 37455 ft 479 kts 242°
2026-05-05 21:26 57.78988 -64.06985 37462 ft 479 kts 242°
2026-05-05 21:27 57.76022 -64.18178 37461 ft 479 kts 242°
2026-05-05 21:27 57.73047 -64.29349 37461 ft 478 kts 241°
2026-05-05 21:28 57.70075 -64.40435 37458 ft 476 kts 242°
2026-05-05 21:28 57.67116 -64.51438 37463 ft 476 kts 241°
2026-05-05 21:29 57.64112 -64.62448 37449 ft 476 kts 241°
2026-05-05 21:29 57.61110 -64.73452 37449 ft 476 kts 241°
2026-05-05 21:30 57.58103 -64.84426 37461 ft 476 kts 241°
2026-05-05 21:30 57.55100 -64.95374 37450 ft 473 kts 241°
2026-05-05 21:31 57.52082 -65.06295 37443 ft 475 kts 241°
2026-05-05 21:31 57.49083 -65.17122 37441 ft 474 kts 241°
2026-05-05 21:32 57.46050 -65.28010 37439 ft 474 kts 240°
2026-05-05 21:32 57.43008 -65.38874 37440 ft 474 kts 240°
2026-05-05 21:33 57.39972 -65.49728 37438 ft 474 kts 240°
2026-05-05 21:33 57.36913 -65.60573 37429 ft 474 kts 240°
2026-05-05 21:34 57.33848 -65.71354 37428 ft 476 kts 240°
2026-05-05 21:34 57.30768 -65.82154 37416 ft 474 kts 240°
2026-05-05 21:35 57.27675 -65.92929 37412 ft 475 kts 240°
2026-05-05 21:35 57.24577 -66.03700 37412 ft 474 kts 240°
2026-05-05 21:36 57.21461 -66.14430 37412 ft 473 kts 240°
2026-05-05 21:36 57.18351 -66.25121 37413 ft 472 kts 240°
2026-05-05 21:37 57.15246 -66.35773 37412 ft 471 kts 240°
2026-05-05 21:37 57.12151 -66.46343 37410 ft 473 kts 240°
2026-05-05 21:38 57.09024 -66.56980 37408 ft 470 kts 239°
2026-05-05 21:38 57.05893 -66.67540 37415 ft 469 kts 239°
2026-05-05 21:39 57.02763 -66.78074 37409 ft 469 kts 239°
2026-05-05 21:39 56.99629 -66.88585 37401 ft 468 kts 239°
2026-05-05 21:40 56.96493 -66.99034 37401 ft 467 kts 239°
2026-05-05 21:40 56.93346 -67.09455 37404 ft 467 kts 239°
2026-05-05 21:41 56.90216 -67.19794 37403 ft 466 kts 239°
2026-05-05 21:41 56.87065 -67.30157 37401 ft 466 kts 239°
2026-05-05 21:42 56.83901 -67.40508 37401 ft 465 kts 239°
2026-05-05 21:42 56.81257 -67.49139 37403 ft 465 kts 239°
2026-05-05 21:43 56.78096 -67.59420 37403 ft 463 kts 238°
2026-05-05 21:43 56.74954 -67.69590 37403 ft 463 kts 238°
2026-05-05 21:44 56.71787 -67.79792 37401 ft 463 kts 238°
2026-05-05 21:44 56.68616 -67.89982 37400 ft 460 kts 238°
2026-05-05 21:45 56.65444 -68.00058 37406 ft 459 kts 238°
2026-05-05 21:45 56.62270 -68.10143 37402 ft 460 kts 238°
2026-05-05 21:46 56.59092 -68.20219 37403 ft 460 kts 238°
2026-05-05 21:46 56.55925 -68.30213 37403 ft 459 kts 238°
2026-05-05 21:47 56.52749 -68.40246 37402 ft 458 kts 238°
2026-05-05 21:47 56.49537 -68.50234 37393 ft 460 kts 237°
2026-05-05 21:48 56.46311 -68.60251 37390 ft 460 kts 237°
2026-05-05 21:48 56.43112 -68.70186 37392 ft 460 kts 237°
2026-05-05 21:49 56.39886 -68.80178 37393 ft 459 kts 237°
2026-05-05 21:49 56.36652 -68.90162 37392 ft 461 kts 237°
2026-05-05 21:50 56.33391 -69.00138 37397 ft 460 kts 237°
2026-05-05 21:50 56.30120 -69.10075 37397 ft 461 kts 237°
2026-05-05 21:51 56.26862 -69.19963 37391 ft 463 kts 237°
2026-05-05 21:51 56.23578 -69.29876 37387 ft 461 kts 237°
2026-05-05 21:52 56.18653 -69.44718 37390 ft 460 kts 237°
2026-05-05 21:53 56.15372 -69.54572 37392 ft 456 kts 237°
2026-05-05 21:53 56.12082 -69.64350 37399 ft 459 kts 236°
2026-05-05 21:54 56.08782 -69.74126 37402 ft 458 kts 237°
2026-05-05 21:54 56.05497 -69.83844 37403 ft 458 kts 236°
2026-05-05 21:55 56.02228 -69.93497 37402 ft 450 kts 236°
2026-05-05 21:55 55.98967 -70.03004 37404 ft 448 kts 234°
2026-05-05 21:56 55.95335 -70.12058 37402 ft 447 kts 231°
2026-05-05 21:56 55.91575 -70.20903 37402 ft 448 kts 231°
2026-05-05 21:57 55.87884 -70.29736 37399 ft 446 kts 231°
2026-05-05 21:57 55.84212 -70.38634 37401 ft 447 kts 231°
2026-05-05 21:58 55.80507 -70.47569 37405 ft 448 kts 231°
2026-05-05 21:58 55.76821 -70.56490 37400 ft 446 kts 231°
2026-05-05 21:59 55.73144 -70.65354 37395 ft 446 kts 231°
2026-05-05 21:59 55.69478 -70.74139 37397 ft 446 kts 231°
2026-05-05 22:00 55.65781 -70.82975 37397 ft 447 kts 231°
2026-05-05 22:00 55.62083 -70.91797 37393 ft 445 kts 231°
2026-05-05 22:01 55.58379 -71.00589 37394 ft 447 kts 231°
2026-05-05 22:01 55.54666 -71.09372 37397 ft 445 kts 231°
2026-05-05 22:02 55.50944 -71.18109 37393 ft 444 kts 231°
2026-05-05 22:02 55.47203 -71.26841 37390 ft 446 kts 231°
2026-05-05 22:03 55.43472 -71.35581 37395 ft 446 kts 231°
2026-05-05 22:03 55.39739 -71.44292 37386 ft 445 kts 231°
2026-05-05 22:04 55.36009 -71.52952 37395 ft 448 kts 231°
2026-05-05 22:04 55.32240 -71.61664 37388 ft 448 kts 231°
2026-05-05 22:05 55.28464 -71.70373 37392 ft 446 kts 231°
2026-05-05 22:05 55.24686 -71.79036 37389 ft 447 kts 231°
2026-05-05 22:06 55.20885 -71.87727 37392 ft 448 kts 231°
2026-05-05 22:06 55.17109 -71.96363 37389 ft 447 kts 231°
2026-05-05 22:07 55.13329 -72.04970 37386 ft 446 kts 230°
2026-05-05 22:07 55.09531 -72.13562 37393 ft 447 kts 230°
2026-05-05 22:08 55.05752 -72.22085 37394 ft 447 kts 230°
2026-05-05 22:08 55.01929 -72.30658 37390 ft 447 kts 230°
2026-05-05 22:09 54.98124 -72.39189 37397 ft 445 kts 230°
2026-05-05 22:09 54.94329 -72.47709 37405 ft 445 kts 230°
2026-05-05 22:10 54.90528 -72.56186 37400 ft 445 kts 230°
2026-05-05 22:10 54.86706 -72.64644 37402 ft 445 kts 231°
2026-05-05 22:11 54.82897 -72.73062 37398 ft 443 kts 230°
2026-05-05 22:11 54.79101 -72.81404 37403 ft 443 kts 230°
2026-05-05 22:12 54.75278 -72.89825 37401 ft 446 kts 230°
2026-05-05 22:12 54.71434 -72.98224 37404 ft 445 kts 230°
2026-05-05 22:13 54.67591 -73.06599 37395 ft 442 kts 230°
2026-05-05 22:13 54.63779 -73.14876 37403 ft 445 kts 230°
2026-05-05 22:14 54.59925 -73.23212 37402 ft 443 kts 230°
2026-05-05 22:14 54.56085 -73.31501 37403 ft 442 kts 230°
2026-05-05 22:15 54.52239 -73.39788 37401 ft 442 kts 230°
2026-05-05 22:15 54.48396 -73.48049 37405 ft 441 kts 230°
2026-05-05 22:16 54.44547 -73.56272 37403 ft 442 kts 230°
2026-05-05 22:16 54.40696 -73.64490 37402 ft 441 kts 230°
2026-05-05 22:17 54.36850 -73.72643 37398 ft 439 kts 230°
2026-05-05 22:17 54.33021 -73.80726 37401 ft 440 kts 230°
2026-05-05 22:18 54.29173 -73.88849 37402 ft 438 kts 230°
2026-05-05 22:18 54.25325 -73.96944 37403 ft 439 kts 230°
2026-05-05 22:19 54.21473 -74.05033 37403 ft 438 kts 230°
2026-05-05 22:19 54.17609 -74.13090 37406 ft 439 kts 230°
2026-05-05 22:20 54.13747 -74.21154 37404 ft 439 kts 230°
2026-05-05 22:20 54.09867 -74.29205 37398 ft 439 kts 230°
2026-05-05 22:21 54.05977 -74.37220 37399 ft 439 kts 229°
2026-05-05 22:21 54.02093 -74.45186 37401 ft 441 kts 229°
2026-05-05 22:22 53.98198 -74.53211 37405 ft 440 kts 229°
2026-05-05 22:22 53.94317 -74.61182 37403 ft 437 kts 229°
2026-05-05 22:23 53.90445 -74.69074 37400 ft 434 kts 229°
2026-05-05 22:23 53.86555 -74.76978 37403 ft 437 kts 229°
2026-05-05 22:24 53.82654 -74.84903 37400 ft 438 kts 229°
2026-05-05 22:24 53.78757 -74.92794 37403 ft 437 kts 229°
2026-05-05 22:25 53.74840 -75.00679 37398 ft 438 kts 229°
2026-05-05 22:25 53.70916 -75.08557 37411 ft 437 kts 229°
2026-05-05 22:26 53.67024 -75.16357 37417 ft 437 kts 229°
2026-05-05 22:26 53.63109 -75.24172 37421 ft 438 kts 229°
2026-05-05 22:27 53.59162 -75.32027 37429 ft 439 kts 229°
2026-05-05 22:27 53.55214 -75.39867 37429 ft 439 kts 229°
2026-05-05 22:28 53.51260 -75.47723 37439 ft 441 kts 229°
2026-05-05 22:28 53.47957 -75.54243 37441 ft 440 kts 229°
2026-05-05 22:29 53.43338 -75.63310 37444 ft 440 kts 228°
2026-05-05 22:29 53.39990 -75.69864 37461 ft 441 kts 229°
2026-05-05 22:30 53.36004 -75.77640 37446 ft 440 kts 228°
2026-05-05 22:30 53.32060 -75.85335 37463 ft 439 kts 228°
2026-05-05 22:31 53.28070 -75.93071 37463 ft 439 kts 228°
2026-05-05 22:31 53.24086 -76.00759 37462 ft 438 kts 228°
2026-05-05 22:32 53.20078 -76.08468 37462 ft 439 kts 228°
2026-05-05 22:32 53.16077 -76.16198 37464 ft 441 kts 228°
2026-05-05 22:33 53.12067 -76.23914 37468 ft 439 kts 228°
2026-05-05 22:33 53.08082 -76.31553 37467 ft 439 kts 228°
2026-05-05 22:34 53.04080 -76.39213 37467 ft 438 kts 228°
2026-05-05 22:34 53.00058 -76.46816 37468 ft 438 kts 227°
2026-05-05 22:35 52.96033 -76.54423 37472 ft 438 kts 228°
2026-05-05 22:35 52.92013 -76.61986 37475 ft 437 kts 228°
2026-05-05 22:36 52.87994 -76.69557 37475 ft 438 kts 228°
2026-05-05 22:36 52.83999 -76.77095 37479 ft 437 kts 228°
2026-05-05 22:37 52.79972 -76.84633 37480 ft 438 kts 227°
2026-05-05 22:37 52.75941 -76.92134 37486 ft 437 kts 228°
2026-05-05 22:38 52.71903 -76.99650 37487 ft 437 kts 227°
2026-05-05 22:38 52.67855 -77.07144 37487 ft 437 kts 227°
2026-05-05 22:39 52.63821 -77.14614 37488 ft 435 kts 227°
2026-05-05 22:39 52.59817 -77.21994 37497 ft 434 kts 227°
2026-05-05 22:40 52.55769 -77.29428 37497 ft 436 kts 227°
2026-05-05 22:40 52.51715 -77.36853 37499 ft 438 kts 227°
2026-05-05 22:41 52.47652 -77.44291 37501 ft 436 kts 227°
2026-05-05 22:41 52.43594 -77.51670 37505 ft 435 kts 227°
2026-05-05 22:42 52.39559 -77.58993 37504 ft 436 kts 227°
2026-05-05 22:42 52.35492 -77.66361 37512 ft 435 kts 227°
2026-05-05 22:43 52.31433 -77.73672 37514 ft 434 kts 227°
2026-05-05 22:43 52.27389 -77.80964 37514 ft 433 kts 227°
2026-05-05 22:44 52.23339 -77.88242 37523 ft 433 kts 227°
2026-05-05 22:44 52.19307 -77.95493 37524 ft 432 kts 227°
2026-05-05 22:45 52.15249 -78.02697 37522 ft 431 kts 227°
2026-05-05 22:45 52.11185 -78.09916 37524 ft 433 kts 227°
2026-05-05 22:46 52.07115 -78.17138 37523 ft 433 kts 227°
2026-05-05 22:46 52.03068 -78.24310 37524 ft 433 kts 227°
2026-05-05 22:47 51.98994 -78.31495 37524 ft 433 kts 227°
2026-05-05 22:47 51.94912 -78.38668 37524 ft 433 kts 227°
2026-05-05 22:48 51.90814 -78.45832 37528 ft 433 kts 226°
2026-05-05 22:48 51.86728 -78.52995 37534 ft 433 kts 227°
2026-05-05 22:49 51.82635 -78.60158 37533 ft 433 kts 226°
2026-05-05 22:49 51.78547 -78.67269 37532 ft 430 kts 226°
2026-05-05 22:50 51.74449 -78.74354 37534 ft 432 kts 226°
2026-05-05 22:50 51.70339 -78.81420 37541 ft 432 kts 226°
2026-05-05 22:51 51.66261 -78.88470 37543 ft 431 kts 226°
2026-05-05 22:51 51.62154 -78.95539 37543 ft 434 kts 227°
2026-05-05 22:52 51.58013 -79.02631 37544 ft 435 kts 226°
2026-05-05 22:52 51.53879 -79.09697 37542 ft 434 kts 226°
2026-05-05 22:53 51.49747 -79.16733 37543 ft 433 kts 226°
2026-05-05 22:53 51.45603 -79.23780 37545 ft 434 kts 226°
2026-05-05 22:54 51.41454 -79.30813 37542 ft 434 kts 226°
2026-05-05 22:54 51.37294 -79.37847 37542 ft 435 kts 226°
2026-05-05 22:55 51.33161 -79.44821 37543 ft 435 kts 226°
2026-05-05 22:55 51.29008 -79.51818 37544 ft 434 kts 226°
2026-05-05 22:56 51.24824 -79.58812 37548 ft 435 kts 226°
2026-05-05 22:56 51.20639 -79.65800 37552 ft 437 kts 226°
2026-05-05 22:57 51.16475 -79.72738 37552 ft 435 kts 226°
2026-05-05 22:57 51.12301 -79.79681 37554 ft 436 kts 226°
2026-05-05 22:58 51.08041 -79.86713 37554 ft 445 kts 226°
2026-05-05 22:58 51.03713 -79.93869 37555 ft 453 kts 226°
2026-05-05 22:59 50.99331 -80.01085 37552 ft 451 kts 226°
2026-05-05 22:59 50.94835 -80.08014 37552 ft 451 kts 223°
2026-05-05 23:00 50.87925 -80.18216 37554 ft 452 kts 224°
2026-05-05 23:00 50.83330 -80.25047 37556 ft 455 kts 224°
2026-05-05 23:01 50.78772 -80.31887 37551 ft 453 kts 224°
2026-05-05 23:01 50.74213 -80.38702 37553 ft 451 kts 224°
2026-05-05 23:02 50.69636 -80.45520 37551 ft 453 kts 224°
2026-05-05 23:02 50.65051 -80.52305 37552 ft 452 kts 224°
2026-05-05 23:03 50.60491 -80.59039 37550 ft 452 kts 224°
2026-05-05 23:03 50.55911 -80.65822 37553 ft 452 kts 224°
2026-05-05 23:04 50.51329 -80.72590 37559 ft 452 kts 223°
2026-05-05 23:04 50.46741 -80.79331 37563 ft 451 kts 223°
2026-05-05 23:05 50.42148 -80.86047 37569 ft 453 kts 224°
2026-05-05 23:05 50.37519 -80.92740 37571 ft 453 kts 223°
2026-05-05 23:06 50.32902 -80.99466 37573 ft 453 kts 224°
2026-05-05 23:06 50.28295 -81.06197 37579 ft 452 kts 224°
2026-05-05 23:07 50.23678 -81.12847 37583 ft 451 kts 223°
2026-05-05 23:07 50.19093 -81.19458 37589 ft 450 kts 224°
2026-05-05 23:08 50.14478 -81.26111 37588 ft 454 kts 224°
2026-05-05 23:08 50.09832 -81.32779 37595 ft 453 kts 224°
2026-05-05 23:09 50.05186 -81.39420 37613 ft 453 kts 224°
2026-05-05 23:09 50.00543 -81.46038 37618 ft 451 kts 224°
2026-05-05 23:10 49.95930 -81.52602 37616 ft 452 kts 224°
2026-05-05 23:10 49.91290 -81.59172 37626 ft 451 kts 224°
2026-05-05 23:11 49.86657 -81.65715 37628 ft 450 kts 224°
2026-05-05 23:11 49.82021 -81.72273 37631 ft 451 kts 224°
2026-05-05 23:12 49.77385 -81.78818 37637 ft 450 kts 224°
2026-05-05 23:12 49.72739 -81.85337 37637 ft 450 kts 223°
2026-05-05 23:13 49.68098 -81.91833 37633 ft 450 kts 224°
2026-05-05 23:13 49.63456 -81.98312 37643 ft 452 kts 224°
2026-05-05 23:14 49.58821 -82.04776 37646 ft 451 kts 224°
2026-05-05 23:14 49.54172 -82.11223 37648 ft 451 kts 224°
2026-05-05 23:15 49.49510 -82.17673 37647 ft 449 kts 224°
2026-05-05 23:15 49.44870 -82.24099 37645 ft 448 kts 224°
2026-05-05 23:16 49.40239 -82.30496 37645 ft 447 kts 224°
2026-05-05 23:16 49.35597 -82.36872 37647 ft 448 kts 224°
2026-05-05 23:17 49.30977 -82.43195 37647 ft 448 kts 224°
2026-05-05 23:17 49.26341 -82.49545 37645 ft 446 kts 224°
2026-05-05 23:18 49.22489 -82.54788 37645 ft 445 kts 224°
2026-05-05 23:18 49.17863 -82.61066 37645 ft 443 kts 224°
2026-05-05 23:19 49.13268 -82.67321 37655 ft 443 kts 224°
2026-05-05 23:19 49.08654 -82.73560 37652 ft 444 kts 224°
2026-05-05 23:20 49.04040 -82.79733 37655 ft 441 kts 224°
2026-05-05 23:20 48.99427 -82.85953 37658 ft 443 kts 224°
2026-05-05 23:21 48.94816 -82.92182 37665 ft 442 kts 224°
2026-05-05 23:21 48.90228 -82.98333 37674 ft 440 kts 224°
2026-05-05 23:22 48.85630 -83.04469 37682 ft 440 kts 224°
2026-05-05 23:22 48.81051 -83.10564 37682 ft 438 kts 224°
2026-05-05 23:23 48.76464 -83.16664 37691 ft 439 kts 224°
2026-05-05 23:23 48.71870 -83.22774 37700 ft 439 kts 224°
2026-05-05 23:24 48.67275 -83.28828 37702 ft 438 kts 224°
2026-05-05 23:24 48.62671 -83.34898 37709 ft 438 kts 224°
2026-05-05 23:25 48.58068 -83.40974 37740 ft 438 kts 224°
2026-05-05 23:25 48.53466 -83.47025 37746 ft 438 kts 224°
2026-05-05 23:26 48.48856 -83.53052 37750 ft 438 kts 224°
2026-05-05 23:26 48.44254 -83.59042 37758 ft 436 kts 224°
2026-05-05 23:27 48.39666 -83.65008 37758 ft 436 kts 224°
2026-05-05 23:27 48.35113 -83.70940 37768 ft 435 kts 224°
2026-05-05 23:28 48.30541 -83.76881 37766 ft 435 kts 224°
2026-05-05 23:28 48.25939 -83.82843 37769 ft 436 kts 224°
2026-05-05 23:29 48.21347 -83.88760 37776 ft 434 kts 224°
2026-05-05 23:29 48.16800 -83.94610 37776 ft 434 kts 224°
2026-05-05 23:30 48.12219 -84.00484 37774 ft 434 kts 224°
2026-05-05 23:30 48.07616 -84.06349 37785 ft 434 kts 224°
2026-05-05 23:31 48.03036 -84.12213 37786 ft 434 kts 224°
2026-05-05 23:31 47.98454 -84.18072 37790 ft 432 kts 224°
2026-05-05 23:32 47.93882 -84.23899 37795 ft 433 kts 224°
2026-05-05 23:32 47.89319 -84.29656 37808 ft 433 kts 224°
2026-05-05 23:33 47.84699 -84.35483 37808 ft 436 kts 224°
2026-05-05 23:33 47.80086 -84.41301 37804 ft 433 kts 224°
2026-05-05 23:34 47.75492 -84.47099 37812 ft 432 kts 224°
2026-05-05 23:34 47.70905 -84.52870 37813 ft 431 kts 224°
2026-05-05 23:35 47.66322 -84.58630 37815 ft 432 kts 224°
2026-05-05 23:35 47.61724 -84.64344 37813 ft 430 kts 224°
2026-05-05 23:36 47.57148 -84.70065 37815 ft 430 kts 224°
2026-05-05 23:36 47.52568 -84.75777 37818 ft 428 kts 224°
2026-05-05 23:37 47.47994 -84.81440 37827 ft 429 kts 224°
2026-05-05 23:37 47.43452 -84.87076 37824 ft 429 kts 224°
2026-05-05 23:38 47.38867 -84.92755 37826 ft 430 kts 224°
2026-05-05 23:38 47.34281 -84.98418 37823 ft 428 kts 224°
2026-05-05 23:39 47.29699 -85.04044 37828 ft 429 kts 224°
2026-05-05 23:39 47.25109 -85.09662 37832 ft 429 kts 224°
2026-05-05 23:40 47.20532 -85.15264 37832 ft 428 kts 224°
2026-05-05 23:40 47.15941 -85.20870 37841 ft 428 kts 224°
2026-05-05 23:41 47.11380 -85.26414 37841 ft 428 kts 224°
2026-05-05 23:41 47.06815 -85.31963 37841 ft 428 kts 225°
2026-05-05 23:42 47.02239 -85.37526 37842 ft 425 kts 224°
2026-05-05 23:42 46.97670 -85.43052 37850 ft 426 kts 224°
2026-05-05 23:43 46.93090 -85.48569 37853 ft 425 kts 224°
2026-05-05 23:43 46.88532 -85.54096 37850 ft 425 kts 225°
2026-05-05 23:44 46.83964 -85.59576 37849 ft 425 kts 224°
2026-05-05 23:44 46.79390 -85.65060 37851 ft 424 kts 224°
2026-05-05 23:45 46.74835 -85.70484 37859 ft 424 kts 225°
2026-05-05 23:45 46.70279 -85.75930 37862 ft 422 kts 225°
2026-05-05 23:46 46.65723 -85.81356 37860 ft 423 kts 225°
2026-05-05 23:46 46.61185 -85.86763 37861 ft 421 kts 225°
2026-05-05 23:47 46.56641 -85.92151 37861 ft 420 kts 225°
2026-05-05 23:47 46.52114 -85.97511 37859 ft 420 kts 225°
2026-05-05 23:48 46.47553 -86.02814 37858 ft 420 kts 223°
2026-05-05 23:48 46.42830 -86.07785 37860 ft 423 kts 221°
2026-05-05 23:49 46.38024 -86.12755 37867 ft 421 kts 222°
2026-05-05 23:49 46.33319 -86.17690 37864 ft 420 kts 222°
2026-05-05 23:50 46.28597 -86.22669 37872 ft 419 kts 223°
2026-05-05 23:50 46.23876 -86.27640 37875 ft 419 kts 222°
2026-05-05 23:51 46.19158 -86.32603 37866 ft 420 kts 222°
2026-05-05 23:51 46.14435 -86.37548 37861 ft 417 kts 222°
2026-05-05 23:52 46.09699 -86.42493 37863 ft 421 kts 222°
2026-05-05 23:52 46.04959 -86.47442 37866 ft 420 kts 222°
2026-05-05 23:53 46.00218 -86.52380 37872 ft 420 kts 222°
2026-05-05 23:53 45.95499 -86.57264 37870 ft 417 kts 222°
2026-05-05 23:54 45.90781 -86.62112 37861 ft 415 kts 223°
2026-05-05 23:54 45.86113 -86.67015 37859 ft 417 kts 223°
2026-05-05 23:55 45.81419 -86.71879 37859 ft 413 kts 223°
2026-05-05 23:55 45.76789 -86.76647 37854 ft 414 kts 223°
2026-05-05 23:56 45.72076 -86.81464 37850 ft 416 kts 223°
2026-05-05 23:56 45.67375 -86.86279 37850 ft 415 kts 223°
2026-05-05 23:57 45.62683 -86.91074 37852 ft 415 kts 223°
2026-05-05 23:57 45.57999 -86.95868 37854 ft 413 kts 223°
2026-05-05 23:58 45.53328 -87.00651 37859 ft 414 kts 223°
2026-05-05 23:58 45.48637 -87.05448 37862 ft 416 kts 223°
2026-05-05 23:59 45.43933 -87.10209 37860 ft 413 kts 222°
2026-05-05 23:59 45.39236 -87.14934 37860 ft 415 kts 223°
2026-05-06 00:00 45.34581 -87.19654 37862 ft 413 kts 223°
2026-05-06 00:00 45.29900 -87.24380 37857 ft 413 kts 223°
2026-05-06 00:01 45.25207 -87.29085 37854 ft 411 kts 223°
2026-05-06 00:01 45.20541 -87.33776 37850 ft 410 kts 223°
2026-05-06 00:02 45.15870 -87.38453 37849 ft 411 kts 223°
2026-05-06 00:02 45.11238 -87.43106 37861 ft 410 kts 223°
2026-05-06 00:03 45.06584 -87.47767 37858 ft 409 kts 223°
2026-05-06 00:03 45.01920 -87.52426 37863 ft 411 kts 223°
2026-05-06 00:04 44.97249 -87.57053 37858 ft 409 kts 223°
2026-05-06 00:04 44.92589 -87.61680 37859 ft 409 kts 223°